User: anonymous   Login
Location: ??????
(42.0089°N, 44.3281°E)
Time: 13:28:52
(UTC+00:00)
Language:

COSMOS 2428 - Orbit

View from above orbital plane
View from above orbital plane
View from above satellite
View from above satellite

Ground track
Ground track

The orbit data is extracted from the following two-line orbital elements,

1 31792U 07029A   22024.02283664  .00000326  00000-0  20258-3 0  9992
2 31792  70.9296 122.7888 0010788 268.3000  91.6885 14.12447196751533
Epoch (UTC): 24 January 2022 00:32:53
Eccentricity: 0.0010788
inclination: 70.9296°
perigee height: 843 km
apogee height: 859 km
right ascension of ascending node: 122.7888°
argument of perigee: 268.3000°
revolutions per day: 14.12447196
mean anomaly at epoch: 91.6885°
orbit number at epoch: 75153

The dashed part of the orbit path shows where the satellite is in the earth's shadow,  

DLR